EZY779 EGKK-EGAC

Flight info

Callsign EZY779
Flight time 0h 57m
Altitude 38000
Route LAM L10 BPK UN601 LESTA UP6 RODOL UM65 TENSO L603 BELOX DCT REMSI DCT NINEB M148 MAGEE
Aircraft A320/M-SDE3FGHIRWY/LB1

Departure

Time 2026-04-17 22:20
Airport London Gatwick Airport (EGKK)

Arrival

Time 2026-04-17 23:18
Airport George Best Belfast City Airport (EGAC)
Time Latitude Longitude Altitude Speed Heading
2026-04-17 21:49 51.15585 -0.17681 204 ft 0 kts 348°
2026-04-17 22:12 51.15578 -0.17679 213 ft 4 kts 347°
2026-04-17 22:12 51.15552 -0.17670 214 ft 4 kts 347°
2026-04-17 22:13 51.15527 -0.17664 216 ft 4 kts 25°
2026-04-17 22:13 51.15513 -0.17690 216 ft 2 kts 77°
2026-04-17 22:13 51.15509 -0.17720 216 ft 1 kts 77°
2026-04-17 22:13 51.15509 -0.17721 216 ft 0 kts 77°
2026-04-17 22:16 51.15520 -0.17643 209 ft 13 kts 77°
2026-04-17 22:16 51.15537 -0.17523 208 ft 9 kts 77°
2026-04-17 22:16 51.15527 -0.17440 207 ft 7 kts 140°
2026-04-17 22:16 51.15466 -0.17410 204 ft 11 kts 166°
2026-04-17 22:17 51.15389 -0.17382 206 ft 12 kts 168°
2026-04-17 22:17 51.15318 -0.17359 204 ft 7 kts 168°
2026-04-17 22:17 51.15296 -0.17352 210 ft 3 kts 168°
2026-04-17 22:17 51.15247 -0.17292 204 ft 8 kts 114°
2026-04-17 22:18 51.15250 -0.17199 207 ft 13 kts 77°
2026-04-17 22:18 51.15273 -0.17036 204 ft 13 kts 78°
2026-04-17 22:18 51.15279 -0.16990 204 ft 0 kts 78°
2026-04-17 22:18 51.15291 -0.16899 213 ft 12 kts 78°
2026-04-17 22:19 51.15262 -0.16820 210 ft 8 kts 161°
2026-04-17 22:19 51.15231 -0.16809 213 ft 3 kts 168°
2026-04-17 22:19 51.15168 -0.16788 207 ft 13 kts 169°
2026-04-17 22:19 51.15112 -0.16877 208 ft 14 kts 257°
2026-04-17 22:20 51.15067 -0.17199 204 ft 61 kts 257°
2026-04-17 22:20 51.14926 -0.18215 209 ft 125 kts 257°
2026-04-17 22:20 51.14705 -0.19813 384 ft 156 kts 256°
2026-04-17 22:20 51.14488 -0.21429 1208 ft 147 kts 256°
2026-04-17 22:21 51.14270 -0.23072 1781 ft 160 kts 256°
2026-04-17 22:21 51.14030 -0.24888 2258 ft 174 kts 256°
2026-04-17 22:21 51.13773 -0.26883 2687 ft 196 kts 261°
2026-04-17 22:21 51.13932 -0.29122 3344 ft 213 kts 287°
2026-04-17 22:22 51.14789 -0.31127 4100 ft 229 kts 316°
2026-04-17 22:22 51.16271 -0.32178 4956 ft 244 kts 349°
2026-04-17 22:22 51.17956 -0.31674 5757 ft 256 kts 28°
2026-04-17 22:22 51.19167 -0.29595 6542 ft 262 kts 68°
2026-04-17 22:23 51.19580 -0.26797 7393 ft 260 kts 82°
2026-04-17 22:23 51.19901 -0.23940 8195 ft 264 kts 82°
2026-04-17 22:23 51.20244 -0.21035 9013 ft 268 kts 82°
2026-04-17 22:23 51.20617 -0.18011 9507 ft 290 kts 81°
2026-04-17 22:24 51.21082 -0.14785 10057 ft 306 kts 72°
2026-04-17 22:24 51.22185 -0.11781 10494 ft 327 kts 47°
2026-04-17 22:24 51.24050 -0.09554 10832 ft 344 kts 22°
2026-04-17 22:24 51.26299 -0.08645 11463 ft 346 kts 359°
2026-04-17 22:25 51.28675 -0.09069 12197 ft 345 kts 343°
2026-04-17 22:25 51.31013 -0.09979 12982 ft 348 kts 341°
2026-04-17 22:25 51.33375 -0.10929 13773 ft 352 kts 341°
2026-04-17 22:25 51.35711 -0.11866 14443 ft 356 kts 341°
2026-04-17 22:26 51.38132 -0.12827 15103 ft 361 kts 341°
2026-04-17 22:26 51.40588 -0.13786 15769 ft 365 kts 341°
2026-04-17 22:26 51.43067 -0.14742 16435 ft 369 kts 341°
2026-04-17 22:26 51.45497 -0.15664 17070 ft 373 kts 341°
2026-04-17 22:27 51.48032 -0.16617 17704 ft 377 kts 341°
2026-04-17 22:27 51.50607 -0.17572 18347 ft 381 kts 341°
2026-04-17 22:27 51.53201 -0.18525 18910 ft 385 kts 341°
2026-04-17 22:27 51.55828 -0.19481 19474 ft 389 kts 341°
2026-04-17 22:28 51.58483 -0.20443 19988 ft 393 kts 341°
2026-04-17 22:28 51.60872 -0.21306 20495 ft 397 kts 341°
2026-04-17 22:28 51.63580 -0.22283 21084 ft 401 kts 341°
2026-04-17 22:28 51.66320 -0.23260 21640 ft 405 kts 341°
2026-04-17 22:29 51.69038 -0.24272 22173 ft 406 kts 336°
2026-04-17 22:29 51.71620 -0.26004 22694 ft 402 kts 327°
2026-04-17 22:29 51.74188 -0.27980 23250 ft 405 kts 327°
2026-04-17 22:29 51.76707 -0.29938 23769 ft 409 kts 327°
2026-04-17 22:30 51.79129 -0.31823 24187 ft 412 kts 326°
2026-04-17 22:30 51.81722 -0.33838 24715 ft 415 kts 326°
2026-04-17 22:30 51.84330 -0.35864 25139 ft 418 kts 326°
2026-04-17 22:30 51.86961 -0.37911 25586 ft 421 kts 326°
2026-04-17 22:31 51.89609 -0.39971 26018 ft 424 kts 326°
2026-04-17 22:31 51.92273 -0.42047 26444 ft 426 kts 326°
2026-04-17 22:31 51.94947 -0.44131 26867 ft 429 kts 326°
2026-04-17 22:31 51.97655 -0.46245 27256 ft 431 kts 326°
2026-04-17 22:32 52.00357 -0.48362 27666 ft 433 kts 325°
2026-04-17 22:32 52.03078 -0.50501 28060 ft 436 kts 325°
2026-04-17 22:32 52.05813 -0.52653 28451 ft 438 kts 325°
2026-04-17 22:32 52.08566 -0.54825 28813 ft 441 kts 325°
2026-04-17 22:33 52.11333 -0.57012 29175 ft 443 kts 324°
2026-04-17 22:33 52.14117 -0.59206 29534 ft 446 kts 325°
2026-04-17 22:33 52.16922 -0.61414 29887 ft 448 kts 324°
2026-04-17 22:33 52.19738 -0.63632 30222 ft 451 kts 324°
2026-04-17 22:34 52.22564 -0.65865 30510 ft 453 kts 324°
2026-04-17 22:34 52.25402 -0.68113 30795 ft 454 kts 324°
2026-04-17 22:34 52.28250 -0.70373 31101 ft 456 kts 324°
2026-04-17 22:34 52.31112 -0.72644 31349 ft 459 kts 324°
2026-04-17 22:35 52.33991 -0.74931 31600 ft 461 kts 324°
2026-04-17 22:35 52.36871 -0.77227 31898 ft 461 kts 324°
2026-04-17 22:35 52.39753 -0.79527 32267 ft 460 kts 324°
2026-04-17 22:35 52.42625 -0.81819 32637 ft 459 kts 324°
2026-04-17 22:36 52.45491 -0.84108 33002 ft 458 kts 324°
2026-04-17 22:36 52.48353 -0.86399 33364 ft 457 kts 324°
2026-04-17 22:36 52.51201 -0.88685 33742 ft 456 kts 324°
2026-04-17 22:36 52.54046 -0.90979 34159 ft 455 kts 323°
2026-04-17 22:37 52.56888 -0.93275 34458 ft 455 kts 324°
2026-04-17 22:37 52.59727 -0.95571 34746 ft 455 kts 324°
2026-04-17 22:37 52.62571 -0.97869 35010 ft 455 kts 324°
2026-04-17 22:37 52.65409 -1.00162 35310 ft 455 kts 324°
2026-04-17 22:38 52.68252 -1.02466 35548 ft 455 kts 324°
2026-04-17 22:38 52.71097 -1.04776 35785 ft 455 kts 324°
2026-04-17 22:38 52.73809 -1.07359 36013 ft 445 kts 316°
2026-04-17 22:38 52.76204 -1.10491 36287 ft 435 kts 308°
2026-04-17 22:39 52.78399 -1.13933 36506 ft 435 kts 307°
2026-04-17 22:39 52.80593 -1.17386 36707 ft 436 kts 307°
2026-04-17 22:39 52.84985 -1.24302 37123 ft 437 kts 308°
2026-04-17 22:40 52.87188 -1.27766 37320 ft 437 kts 308°
2026-04-17 22:40 52.89395 -1.31231 37523 ft 437 kts 308°
2026-04-17 22:40 52.91599 -1.34698 37719 ft 437 kts 308°
2026-04-17 22:40 52.93801 -1.38177 37914 ft 437 kts 308°
2026-04-17 22:41 52.96000 -1.41666 38092 ft 438 kts 308°
2026-04-17 22:41 52.98195 -1.45157 38133 ft 437 kts 308°
2026-04-17 22:41 53.02582 -1.52145 38128 ft 437 kts 308°
2026-04-17 22:42 53.06973 -1.59158 38120 ft 438 kts 309°
2026-04-17 22:42 53.11372 -1.66192 38119 ft 439 kts 309°
2026-04-17 22:43 53.15028 -1.72045 38107 ft 439 kts 309°
2026-04-17 22:43 53.19423 -1.79108 38115 ft 439 kts 309°
2026-04-17 22:44 53.24749 -1.87000 38144 ft 448 kts 320°
2026-04-17 22:44 53.30199 -1.92249 38132 ft 453 kts 323°
2026-04-17 22:45 53.34798 -1.96587 38125 ft 453 kts 323°
2026-04-17 22:45 53.40285 -2.01795 38121 ft 453 kts 323°
2026-04-17 22:46 53.45762 -2.07033 38133 ft 453 kts 324°
2026-04-17 22:46 53.51202 -2.12245 38116 ft 454 kts 324°
2026-04-17 22:47 53.56564 -2.17747 38106 ft 446 kts 315°
2026-04-17 22:47 53.60667 -2.25268 38097 ft 430 kts 296°
2026-04-17 22:48 53.63168 -2.34234 38089 ft 421 kts 285°
2026-04-17 22:48 53.65277 -2.43448 38095 ft 422 kts 285°
2026-04-17 22:49 53.67380 -2.52685 38086 ft 422 kts 285°
2026-04-17 22:49 53.69467 -2.61872 38126 ft 422 kts 285°
2026-04-17 22:50 53.71562 -2.71144 38131 ft 423 kts 285°
2026-04-17 22:50 53.73661 -2.80451 37899 ft 425 kts 285°
2026-04-17 22:51 53.74708 -2.85124 37628 ft 424 kts 285°
2026-04-17 22:51 53.75748 -2.89782 37374 ft 423 kts 285°
2026-04-17 22:51 53.76787 -2.94437 37115 ft 423 kts 285°
2026-04-17 22:51 53.77824 -2.99082 36855 ft 422 kts 285°
2026-04-17 22:52 53.78857 -3.03716 36600 ft 421 kts 284°
2026-04-17 22:52 53.79886 -3.08348 36355 ft 421 kts 284°
2026-04-17 22:52 53.80911 -3.12979 36101 ft 420 kts 284°
2026-04-17 22:52 53.81931 -3.17593 35892 ft 417 kts 284°
2026-04-17 22:53 53.82941 -3.22155 35517 ft 411 kts 284°
2026-04-17 22:53 53.83937 -3.26670 35031 ft 407 kts 283°
2026-04-17 22:53 53.84920 -3.31148 34527 ft 404 kts 283°
2026-04-17 22:53 53.85891 -3.35594 34021 ft 401 kts 283°
2026-04-17 22:54 53.86849 -3.40005 33484 ft 396 kts 282°
2026-04-17 22:54 53.87794 -3.44354 33007 ft 391 kts 282°
2026-04-17 22:54 53.88731 -3.48657 32503 ft 387 kts 282°
2026-04-17 22:54 53.89658 -3.52916 32008 ft 383 kts 282°
2026-04-17 22:55 53.90573 -3.57137 31534 ft 379 kts 282°
2026-04-17 22:55 53.91477 -3.61316 31060 ft 376 kts 281°
2026-04-17 22:55 53.92369 -3.65460 30594 ft 372 kts 281°
2026-04-17 22:55 53.93251 -3.69568 30153 ft 369 kts 281°
2026-04-17 22:56 53.94113 -3.73594 29673 ft 366 kts 281°
2026-04-17 22:56 53.94979 -3.77626 29216 ft 361 kts 281°
2026-04-17 22:56 53.95849 -3.81600 28791 ft 358 kts 284°
2026-04-17 22:56 53.96992 -3.85384 28373 ft 361 kts 290°
2026-04-17 22:57 53.98240 -3.89060 27951 ft 357 kts 290°
2026-04-17 22:57 53.99474 -3.92698 27523 ft 353 kts 290°
2026-04-17 22:57 54.00691 -3.96293 27111 ft 349 kts 290°
2026-04-17 22:57 54.01893 -3.99857 26682 ft 346 kts 290°
2026-04-17 22:58 54.03078 -4.03387 26269 ft 342 kts 290°
2026-04-17 22:58 54.04249 -4.06884 25840 ft 339 kts 289°
2026-04-17 22:58 54.05412 -4.10361 25407 ft 336 kts 289°
2026-04-17 22:58 54.06621 -4.13769 24970 ft 339 kts 295°
2026-04-17 22:59 54.07977 -4.17045 24526 ft 338 kts 295°
2026-04-17 22:59 54.09331 -4.20307 24082 ft 336 kts 295°
2026-04-17 22:59 54.10680 -4.23556 23672 ft 335 kts 295°
2026-04-17 22:59 54.12025 -4.26805 23124 ft 335 kts 295°
2026-04-17 23:00 54.13362 -4.30039 22681 ft 332 kts 295°
2026-04-17 23:00 54.14686 -4.33238 22255 ft 329 kts 295°
2026-04-17 23:00 54.16002 -4.36412 21823 ft 326 kts 295°
2026-04-17 23:00 54.17289 -4.39523 21431 ft 324 kts 296°
2026-04-17 23:01 54.18601 -4.42704 20993 ft 323 kts 296°
2026-04-17 23:01 54.19871 -4.45787 20586 ft 321 kts 296°
2026-04-17 23:01 54.21166 -4.48941 20169 ft 320 kts 296°
2026-04-17 23:01 54.22421 -4.52005 19766 ft 318 kts 296°
2026-04-17 23:02 54.23687 -4.55099 19362 ft 316 kts 296°
2026-04-17 23:02 54.24940 -4.58168 18959 ft 315 kts 296°
2026-04-17 23:02 54.26191 -4.61232 18556 ft 314 kts 296°
2026-04-17 23:02 54.27438 -4.64295 18132 ft 313 kts 297°
2026-04-17 23:03 54.28678 -4.67344 17729 ft 311 kts 297°
2026-04-17 23:03 54.29905 -4.70370 17337 ft 308 kts 297°
2026-04-17 23:03 54.31125 -4.73379 16950 ft 306 kts 297°
2026-04-17 23:03 54.32337 -4.76368 16574 ft 304 kts 297°
2026-04-17 23:04 54.33542 -4.79337 16194 ft 303 kts 297°
2026-04-17 23:04 54.34742 -4.82295 15836 ft 302 kts 297°
2026-04-17 23:04 54.35940 -4.85251 15445 ft 301 kts 297°
2026-04-17 23:04 54.37130 -4.88196 15077 ft 300 kts 297°
2026-04-17 23:05 54.38313 -4.91132 14707 ft 299 kts 297°
2026-04-17 23:05 54.39491 -4.94064 14340 ft 298 kts 298°
2026-04-17 23:05 54.40665 -4.96992 13975 ft 298 kts 298°
2026-04-17 23:05 54.41839 -4.99925 13571 ft 298 kts 298°
2026-04-17 23:06 54.43008 -5.02844 13186 ft 296 kts 298°
2026-04-17 23:06 54.44170 -5.05743 12809 ft 294 kts 298°
2026-04-17 23:06 54.45328 -5.08618 12423 ft 292 kts 299°
2026-04-17 23:06 54.46485 -5.11474 12047 ft 290 kts 299°
2026-04-17 23:07 54.47635 -5.14309 11664 ft 289 kts 299°
2026-04-17 23:07 54.48781 -5.17137 11272 ft 287 kts 299°
2026-04-17 23:07 54.49918 -5.19944 10895 ft 286 kts 299°
2026-04-17 23:07 54.51203 -5.22558 10581 ft 287 kts 311°
2026-04-17 23:08 54.52762 -5.24744 10198 ft 288 kts 316°
2026-04-17 23:08 54.54320 -5.26850 9789 ft 288 kts 316°
2026-04-17 23:08 54.55883 -5.28962 9342 ft 287 kts 316°
2026-04-17 23:08 54.57437 -5.31068 9018 ft 282 kts 316°
2026-04-17 23:09 54.58984 -5.33168 8568 ft 281 kts 316°
2026-04-17 23:09 54.60505 -5.35237 8203 ft 277 kts 316°
2026-04-17 23:09 54.62017 -5.37299 7769 ft 276 kts 316°
2026-04-17 23:09 54.63518 -5.39351 7383 ft 274 kts 316°
2026-04-17 23:10 54.65004 -5.41380 7015 ft 271 kts 316°
2026-04-17 23:10 54.66475 -5.43389 6639 ft 268 kts 316°
2026-04-17 23:10 54.67925 -5.45375 6148 ft 263 kts 316°
2026-04-17 23:10 54.69352 -5.47335 5490 ft 258 kts 316°
2026-04-17 23:11 54.70699 -5.49173 5343 ft 235 kts 316°
2026-04-17 23:11 54.71928 -5.50847 5165 ft 218 kts 315°
2026-04-17 23:11 54.73098 -5.52454 4751 ft 213 kts 315°
2026-04-17 23:11 54.74249 -5.54045 4285 ft 211 kts 315°
2026-04-17 23:12 54.75389 -5.55622 3909 ft 209 kts 314°
2026-04-17 23:12 54.76523 -5.57189 3428 ft 208 kts 314°
2026-04-17 23:12 54.77611 -5.58812 2957 ft 202 kts 303°
2026-04-17 23:12 54.78297 -5.60849 2487 ft 193 kts 282°
2026-04-17 23:13 54.78487 -5.63089 2050 ft 185 kts 262°
2026-04-17 23:13 54.78215 -5.65240 2012 ft 185 kts 248°
2026-04-17 23:13 54.77719 -5.67297 2005 ft 185 kts 239°
2026-04-17 23:13 54.76882 -5.68988 2003 ft 188 kts 222°
2026-04-17 23:14 54.75840 -5.70357 2006 ft 189 kts 219°
2026-04-17 23:14 54.74784 -5.71652 1994 ft 178 kts 218°
2026-04-17 23:14 54.73812 -5.72827 2035 ft 165 kts 218°
2026-04-17 23:14 54.72891 -5.73938 2009 ft 159 kts 218°
2026-04-17 23:15 54.71990 -5.75026 2004 ft 158 kts 219°
2026-04-17 23:15 54.71087 -5.76114 1996 ft 159 kts 219°
2026-04-17 23:15 54.70184 -5.77201 1886 ft 158 kts 218°
2026-04-17 23:15 54.69337 -5.78216 1748 ft 139 kts 219°
2026-04-17 23:16 54.68569 -5.79140 1540 ft 132 kts 219°
2026-04-17 23:16 54.67825 -5.80035 1360 ft 129 kts 218°
2026-04-17 23:16 54.67083 -5.80928 1170 ft 130 kts 216°
2026-04-17 23:16 54.66362 -5.81800 1020 ft 128 kts 216°
2026-04-17 23:17 54.65627 -5.82664 810 ft 130 kts 214°
2026-04-17 23:17 54.64880 -5.83534 637 ft 131 kts 217°
2026-04-17 23:17 54.64165 -5.84442 449 ft 127 kts 216°
2026-04-17 23:17 54.63437 -5.85308 310 ft 125 kts 216°
2026-04-17 23:18 54.62723 -5.86162 124 ft 125 kts 216°
2026-04-17 23:18 54.62031 -5.86985 19 ft 111 kts 214°
2026-04-17 23:18 54.61605 -5.87497 15 ft 31 kts 214°
2026-04-17 23:18 54.61470 -5.87660 12 ft 22 kts 216°
2026-04-17 23:19 54.61358 -5.87794 16 ft 15 kts 207°
2026-04-17 23:19 54.61281 -5.87736 15 ft 11 kts 130°
2026-04-17 23:19 54.61257 -5.87644 16 ft 7 kts 102°
2026-04-17 23:19 54.61285 -5.87563 18 ft 12 kts 37°
2026-04-17 23:20 54.61336 -5.87503 21 ft 7 kts 34°
2026-04-17 23:20 54.61383 -5.87440 21 ft 12 kts 45°
2026-04-17 23:20 54.61437 -5.87337 21 ft 9 kts 37°
2026-04-17 23:20 54.61449 -5.87322 21 ft 0 kts 37°
2026-04-17 23:21 54.61476 -5.87290 21 ft 7 kts 33°
2026-04-17 23:21 54.61509 -5.87252 21 ft 4 kts 34°
2026-04-17 23:21 54.61507 -5.87231 21 ft 3 kts 123°
2026-04-17 23:21 54.61484 -5.87206 21 ft 4 kts 152°
2026-04-17 23:22 54.61466 -5.87191 23 ft 2 kts 155°
2026-04-17 23:22 54.61462 -5.87188 22 ft 0 kts 155°